Location: Helsinki
(60.1699°N, 24.9384°E)
Time: 21:52:12
(UTC+03:00)

Explorer 7 - All Passes

Search period start: 02 October 2022 00:00
Search period end: 12 October 2022 00:00
Orbit: 482 x 667 km, 50.3° (Epoch: 02 October)

Date Brightness Start Highest point End Pass type
(mag) Time Alt. Az. Time Alt. Az. Time Alt. Az.
02 Oct - 12:52:33 10° S 12:55:14 15° SSE 12:57:52 10° ESE daylight
02 Oct - 14:30:50 10° SW 14:34:36 24° S 14:38:16 10° ESE daylight
02 Oct - 16:10:30 10° WSW 16:14:06 22° SSW 16:17:34 10° SE daylight
02 Oct - 17:51:43 10° SW 17:53:18 12° SSW 17:54:52 10° SSW daylight
03 Oct - 12:54:12 10° SSW 12:57:23 18° SSE 13:00:29 10° ESE daylight
03 Oct - 14:32:58 10° SW 14:36:49 25° S 14:40:32 10° ESE daylight
03 Oct - 16:12:53 10° WSW 16:16:17 20° SSW 16:19:34 10° SSE daylight
04 Oct - 12:56:02 10° SSW 12:59:32 20° SSE 13:02:58 10° ESE daylight
04 Oct - 14:35:09 10° WSW 14:39:01 25° S 14:42:46 10° SE daylight
04 Oct - 16:15:19 10° WSW 16:18:26 18° SSW 16:21:26 10° SSE daylight
05 Oct - 11:20:31 10° S 11:22:26 12° SSE 11:24:21 10° ESE daylight
05 Oct - 12:57:59 10° SW 13:01:42 22° SSE 13:05:20 10° ESE daylight
05 Oct - 14:37:24 10° WSW 14:41:13 24° S 14:44:54 10° SE daylight
05 Oct - 16:17:53 10° WSW 16:20:33 15° SSW 16:23:07 10° S daylight
06 Oct - 11:21:47 10° S 11:24:31 15° SSE 11:27:13 10° ESE daylight
06 Oct - 13:00:01 10° SW 13:03:52 24° S 13:07:39 10° ESE daylight
06 Oct - 14:39:41 10° WSW 14:43:23 23° SSW 14:47:00 10° SE daylight
06 Oct - 16:20:43 10° WSW 16:22:37 12° SSW 16:24:29 10° S daylight
07 Oct - 11:23:24 10° SSW 11:26:37 18° SSE 11:29:49 10° ESE daylight
07 Oct - 13:02:08 10° SW 13:06:03 25° S 13:09:54 10° ESE daylight
07 Oct - 14:42:01 10° WSW 14:45:33 21° SSW 14:48:58 10° SSE daylight
08 Oct - 11:25:12 10° SSW 11:28:45 20° SSE 11:32:15 10° ESE daylight
08 Oct - 13:04:17 10° WSW 13:08:14 25° S 13:12:06 10° SE daylight
08 Oct - 14:44:25 10° WSW 14:47:40 18° SSW 14:50:50 10° SSE daylight
09 Oct - 09:49:42 10° S 09:51:38 12° SSE 09:53:33 10° ESE daylight
09 Oct - 11:27:08 10° SW 11:30:53 23° SSE 11:34:36 10° ESE daylight
09 Oct - 13:06:30 10° WSW 13:10:24 25° S 13:14:13 10° SE daylight
09 Oct - 14:46:55 10° WSW 14:49:46 16° SSW 14:52:31 10° S daylight
10 Oct - 09:50:56 10° S 09:53:40 15° SSE 09:56:24 10° ESE daylight
10 Oct - 11:29:08 10° SW 11:33:02 24° S 11:36:53 10° ESE daylight
10 Oct - 13:08:45 10° WSW 13:12:33 23° SSW 13:16:16 10° SE daylight
10 Oct - 14:49:39 10° WSW 14:51:48 13° SSW 14:53:54 10° S daylight
11 Oct - 09:52:32 10° SSW 09:55:45 18° SSE 09:58:58 10° ESE daylight
11 Oct - 11:31:13 10° SW 11:35:11 25° S 11:39:06 10° ESE daylight
11 Oct - 13:11:03 10° WSW 13:14:41 21° SSW 13:18:14 10° SSE daylight
11 Oct - 14:53:14 10° SW 14:53:48 10° SW 14:54:22 10° SSW daylight
